UAL3906 KLAX-KDEN

Flight info

Callsign UAL3906
Flight time N/A
Altitude 37000
Route ORCKA5 LAS J146 DICEE DCT BUMMP SSKII4
Aircraft B772/H-SDE2E3FGHIJ5LORVWXY/LB1D1

Departure

Time 2026-05-08 06:35
Airport Los Angeles International Airport (KLAX)

Arrival

Time N/A
Airport Denver International Airport (KDEN)
Time Latitude Longitude Altitude Speed Heading
2026-05-08 06:08 33.94100 -118.41090 130 ft 0 kts 83°
2026-05-08 06:26 33.94099 -118.41090 130 ft 1 kts 83°
2026-05-08 06:26 33.94096 -118.41118 124 ft 4 kts 77°
2026-05-08 06:26 33.94088 -118.41149 124 ft 4 kts 66°
2026-05-08 06:26 33.94075 -118.41177 124 ft 4 kts 45°
2026-05-08 06:27 33.94056 -118.41191 124 ft 2 kts 354°
2026-05-08 06:27 33.94054 -118.41191 124 ft 0 kts 353°
2026-05-08 06:28 33.94076 -118.41194 124 ft 9 kts 353°
2026-05-08 06:29 33.94166 -118.41208 127 ft 15 kts 352°
2026-05-08 06:29 33.94268 -118.41222 127 ft 15 kts 353°
2026-05-08 06:29 33.94369 -118.41235 127 ft 15 kts 353°
2026-05-08 06:29 33.94471 -118.41253 127 ft 15 kts 354°
2026-05-08 06:30 33.94572 -118.41268 125 ft 15 kts 353°
2026-05-08 06:30 33.94674 -118.41282 127 ft 15 kts 353°
2026-05-08 06:30 33.94770 -118.41266 125 ft 15 kts 44°
2026-05-08 06:30 33.94808 -118.41156 128 ft 15 kts 83°
2026-05-08 06:31 33.94822 -118.41033 129 ft 15 kts 84°
2026-05-08 06:31 33.94832 -118.40910 126 ft 15 kts 82°
2026-05-08 06:31 33.94845 -118.40788 128 ft 15 kts 83°
2026-05-08 06:31 33.94858 -118.40665 130 ft 15 kts 82°
2026-05-08 06:32 33.94872 -118.40543 127 ft 15 kts 83°
2026-05-08 06:32 33.94880 -118.40422 127 ft 15 kts 83°
2026-05-08 06:32 33.94898 -118.40300 127 ft 15 kts 82°
2026-05-08 06:32 33.94901 -118.40265 126 ft 2 kts 84°
2026-05-08 06:33 33.94908 -118.40223 126 ft 11 kts 71°
2026-05-08 06:33 33.94963 -118.40175 125 ft 11 kts 358°
2026-05-08 06:33 33.95010 -118.40198 127 ft 5 kts 301°
2026-05-08 06:33 33.95013 -118.40230 125 ft 0 kts 265°
2026-05-08 06:34 33.94978 -118.40594 126 ft 94 kts 263°
2026-05-08 06:34 33.94864 -118.41677 128 ft 178 kts 263°
2026-05-08 06:35 33.94699 -118.43311 858 ft 197 kts 264°
2026-05-08 06:35 33.94567 -118.44823 2173 ft 173 kts 263°
2026-05-08 06:35 33.94429 -118.46232 2762 ft 169 kts 263°
2026-05-08 06:35 33.94058 -118.47634 2936 ft 190 kts 228°
2026-05-08 06:36 33.92846 -118.48392 3176 ft 210 kts 182°
2026-05-08 06:36 33.91419 -118.47905 3364 ft 230 kts 141°
2026-05-08 06:36 33.90507 -118.46294 3598 ft 243 kts 102°
2026-05-08 06:36 33.90565 -118.44225 3813 ft 258 kts 65°
2026-05-08 06:37 33.91674 -118.42539 4285 ft 261 kts 34°
2026-05-08 06:37 33.93110 -118.41198 4691 ft 269 kts 47°
2026-05-08 06:37 33.94162 -118.39308 5204 ft 274 kts 56°
2026-05-08 06:37 33.95213 -118.37364 5815 ft 278 kts 53°
2026-05-08 06:38 33.96337 -118.35451 6476 ft 280 kts 52°
2026-05-08 06:38 33.97494 -118.33540 7074 ft 283 kts 51°
2026-05-08 06:38 33.98665 -118.31637 7671 ft 285 kts 51°
2026-05-08 06:38 33.99841 -118.29740 8260 ft 287 kts 51°
2026-05-08 06:39 34.01045 -118.27804 8845 ft 290 kts 52°
2026-05-08 06:39 34.02262 -118.25853 9395 ft 292 kts 52°
2026-05-08 06:39 34.03492 -118.23882 9959 ft 295 kts 52°
2026-05-08 06:39 34.04740 -118.21883 10313 ft 305 kts 52°
2026-05-08 06:40 34.06060 -118.19771 10428 ft 323 kts 51°
2026-05-08 06:40 34.07447 -118.17548 10636 ft 338 kts 52°
2026-05-08 06:40 34.08877 -118.15254 11094 ft 347 kts 52°
2026-05-08 06:40 34.10337 -118.12910 11758 ft 350 kts 53°
2026-05-08 06:41 34.11795 -118.10568 12645 ft 348 kts 53°
2026-05-08 06:41 34.13227 -118.08199 13429 ft 352 kts 55°
2026-05-08 06:41 34.14610 -118.05756 14182 ft 355 kts 56°
2026-05-08 06:41 34.15998 -118.03259 14849 ft 360 kts 56°
2026-05-08 06:42 34.17399 -118.00735 15575 ft 363 kts 56°
2026-05-08 06:42 34.18814 -117.98195 16276 ft 367 kts 55°
2026-05-08 06:42 34.20243 -117.95637 16812 ft 368 kts 55°
2026-05-08 06:42 34.21662 -117.93103 17178 ft 371 kts 55°
2026-05-08 06:43 34.23120 -117.90504 17755 ft 377 kts 55°
2026-05-08 06:43 34.24594 -117.87874 18451 ft 380 kts 55°
2026-05-08 06:43 34.26084 -117.85216 19044 ft 383 kts 55°
2026-05-08 06:43 34.27588 -117.82531 19572 ft 386 kts 55°
2026-05-08 06:44 34.28585 -117.80749 19952 ft 387 kts 55°
2026-05-08 06:44 34.30105 -117.78033 20535 ft 391 kts 55°
2026-05-08 06:44 34.31633 -117.75301 21064 ft 394 kts 55°
2026-05-08 06:44 34.33175 -117.72540 21596 ft 397 kts 55°
2026-05-08 06:45 34.34730 -117.69755 22121 ft 401 kts 55°
2026-05-08 06:45 34.36319 -117.66970 22596 ft 405 kts 53°
2026-05-08 06:45 34.37974 -117.64189 23085 ft 409 kts 53°
2026-05-08 06:45 34.39639 -117.61428 23600 ft 412 kts 53°
2026-05-08 06:46 34.41336 -117.58619 24046 ft 414 kts 53°
2026-05-08 06:46 34.43041 -117.55787 24509 ft 417 kts 53°
2026-05-08 06:46 34.44750 -117.52937 24925 ft 419 kts 53°
2026-05-08 06:46 34.46461 -117.50074 25462 ft 422 kts 53°
2026-05-08 06:47 34.48157 -117.47228 25922 ft 424 kts 53°
2026-05-08 06:47 34.49924 -117.44349 26327 ft 427 kts 50°
2026-05-08 06:47 34.51826 -117.41593 26758 ft 430 kts 48°
2026-05-08 06:47 34.53803 -117.38849 27201 ft 432 kts 47°
2026-05-08 06:48 34.55751 -117.36085 27640 ft 435 kts 51°
2026-05-08 06:48 34.57456 -117.33035 28069 ft 438 kts 58°
2026-05-08 06:48 34.59033 -117.29853 28475 ft 441 kts 58°
2026-05-08 06:48 34.60617 -117.26643 28895 ft 444 kts 58°
2026-05-08 06:49 34.62208 -117.23425 29283 ft 446 kts 58°
2026-05-08 06:49 34.63818 -117.20183 29669 ft 449 kts 58°
2026-05-08 06:49 34.65435 -117.16938 29969 ft 452 kts 58°
2026-05-08 06:49 34.67069 -117.13667 30355 ft 453 kts 57°
2026-05-08 06:50 34.68710 -117.10387 30717 ft 455 kts 57°
2026-05-08 06:50 34.70356 -117.07097 31037 ft 457 kts 57°
2026-05-08 06:50 34.72014 -117.03781 31339 ft 460 kts 57°
2026-05-08 06:50 34.73681 -117.00447 31641 ft 463 kts 57°
2026-05-08 06:51 34.75349 -116.97104 31936 ft 465 kts 57°
2026-05-08 06:51 34.77024 -116.93743 32271 ft 466 kts 57°
2026-05-08 06:51 34.78715 -116.90350 32548 ft 468 kts 57°
2026-05-08 06:51 34.80406 -116.86950 32836 ft 470 kts 57°
2026-05-08 06:52 34.82092 -116.83557 33197 ft 469 kts 57°
2026-05-08 06:52 34.83776 -116.80160 33652 ft 466 kts 57°
2026-05-08 06:52 34.85446 -116.76790 34128 ft 462 kts 57°
2026-05-08 06:52 34.87106 -116.73440 34364 ft 464 kts 57°
2026-05-08 06:53 34.88776 -116.70070 34591 ft 465 kts 57°
2026-05-08 06:53 34.90449 -116.66692 34834 ft 466 kts 57°
2026-05-08 06:53 34.92122 -116.63308 35097 ft 466 kts 57°
2026-05-08 06:53 34.93777 -116.59956 35356 ft 466 kts 57°
2026-05-08 06:54 34.95436 -116.56594 35692 ft 464 kts 57°
2026-05-08 06:54 34.97102 -116.53214 35944 ft 464 kts 57°
2026-05-08 06:54 34.98766 -116.49832 36149 ft 465 kts 57°
2026-05-08 06:54 35.00433 -116.46443 36398 ft 465 kts 57°
2026-05-08 06:55 35.02091 -116.43066 36677 ft 464 kts 57°
2026-05-08 06:55 35.03756 -116.39673 36838 ft 466 kts 57°
2026-05-08 06:55 35.07104 -116.32845 36901 ft 470 kts 57°
2026-05-08 06:56 35.10416 -116.26070 36882 ft 463 kts 57°
2026-05-08 06:56 35.13706 -116.19331 36890 ft 463 kts 57°
2026-05-08 06:57 35.17028 -116.12518 36924 ft 470 kts 57°
2026-05-08 06:57 35.20407 -116.05572 36921 ft 478 kts 58°
2026-05-08 06:58 35.23819 -115.98540 36943 ft 483 kts 58°
2026-05-08 06:58 35.27263 -115.91427 36937 ft 487 kts 58°
2026-05-08 06:59 35.30719 -115.84275 36946 ft 489 kts 58°
2026-05-08 06:59 35.34175 -115.77110 36950 ft 489 kts 58°
2026-05-08 07:00 35.37617 -115.69959 36973 ft 490 kts 58°
2026-05-08 07:00 35.41074 -115.62761 36991 ft 489 kts 58°
2026-05-08 07:01 35.44524 -115.55562 36984 ft 489 kts 58°
2026-05-08 07:01 35.47967 -115.48363 36978 ft 489 kts 58°
2026-05-08 07:02 35.51401 -115.41169 36977 ft 488 kts 58°
2026-05-08 07:02 35.54825 -115.33979 36964 ft 487 kts 58°
2026-05-08 07:03 35.58240 -115.26793 36971 ft 487 kts 58°
2026-05-08 07:03 35.61637 -115.19631 36946 ft 487 kts 58°
2026-05-08 07:04 35.65046 -115.12431 36926 ft 487 kts 58°
2026-05-08 07:04 35.68444 -115.05236 36927 ft 488 kts 58°
2026-05-08 07:05 35.71854 -114.98001 36909 ft 488 kts 58°
2026-05-08 07:05 35.75235 -114.90810 36907 ft 488 kts 58°
2026-05-08 07:06 35.78630 -114.83576 36905 ft 488 kts 58°
2026-05-08 07:06 35.82026 -114.76327 36877 ft 488 kts 58°
2026-05-08 07:07 35.85416 -114.69074 36879 ft 488 kts 58°
2026-05-08 07:07 35.88796 -114.61825 36900 ft 488 kts 58°
2026-05-08 07:08 35.92182 -114.54545 36889 ft 488 kts 58°
2026-05-08 07:08 35.95538 -114.47319 36872 ft 488 kts 58°
2026-05-08 07:09 35.98909 -114.40044 36855 ft 488 kts 58°
2026-05-08 07:09 36.02272 -114.32767 36857 ft 488 kts 58°
2026-05-08 07:10 36.05632 -114.25485 36846 ft 487 kts 58°
2026-05-08 07:10 36.08963 -114.18249 36848 ft 487 kts 58°
2026-05-08 07:11 36.12306 -114.10972 36853 ft 486 kts 58°
2026-05-08 07:11 36.15643 -114.03688 36863 ft 486 kts 58°
2026-05-08 07:12 36.18973 -113.96408 36856 ft 486 kts 58°
2026-05-08 07:12 36.22294 -113.89131 36862 ft 485 kts 58°
2026-05-08 07:13 36.25615 -113.81840 36866 ft 485 kts 58°
2026-05-08 07:13 36.28917 -113.74571 36884 ft 485 kts 58°
2026-05-08 07:14 36.32132 -113.67212 36872 ft 485 kts 59°
2026-05-08 07:14 36.35213 -113.59812 36888 ft 485 kts 60°
2026-05-08 07:15 36.38304 -113.52368 36885 ft 485 kts 60°
2026-05-08 07:15 36.41408 -113.44936 36912 ft 485 kts 59°
2026-05-08 07:16 36.44517 -113.37504 36912 ft 484 kts 59°
2026-05-08 07:16 36.47623 -113.30065 36923 ft 484 kts 59°
2026-05-08 07:17 36.50697 -113.22687 36940 ft 483 kts 59°
2026-05-08 07:17 36.53785 -113.15254 36938 ft 483 kts 59°
2026-05-08 07:18 36.56870 -113.07813 36966 ft 483 kts 59°
2026-05-08 07:18 36.59945 -113.00378 36949 ft 483 kts 59°
2026-05-08 07:19 36.63016 -112.92937 36985 ft 483 kts 59°
2026-05-08 07:19 36.66084 -112.85484 36992 ft 483 kts 59°
2026-05-08 07:20 36.69129 -112.78072 37011 ft 484 kts 59°
2026-05-08 07:20 36.72192 -112.70592 37000 ft 484 kts 59°
2026-05-08 07:21 36.75251 -112.63114 36987 ft 484 kts 59°
2026-05-08 07:21 36.78308 -112.55622 37003 ft 485 kts 59°
2026-05-08 07:22 36.81369 -112.48097 36999 ft 485 kts 59°
2026-05-08 07:22 36.84400 -112.40629 37018 ft 485 kts 59°
2026-05-08 07:23 36.87441 -112.33123 37002 ft 484 kts 59°
2026-05-08 07:23 36.90475 -112.25614 36997 ft 484 kts 59°
2026-05-08 07:24 36.93503 -112.18103 36988 ft 483 kts 59°
2026-05-08 07:24 36.96515 -112.10610 37001 ft 482 kts 59°
2026-05-08 07:25 36.99530 -112.03097 36960 ft 481 kts 59°
2026-05-08 07:26 37.04010 -111.91904 36929 ft 480 kts 59°
2026-05-08 07:26 37.06994 -111.84419 36928 ft 481 kts 59°
2026-05-08 07:27 37.09981 -111.76913 36915 ft 482 kts 58°
2026-05-08 07:27 37.12971 -111.69382 36914 ft 483 kts 58°
2026-05-08 07:28 37.15965 -111.61825 36920 ft 484 kts 59°
2026-05-08 07:28 37.18956 -111.54255 36955 ft 485 kts 59°
2026-05-08 07:29 37.21440 -111.47953 36943 ft 485 kts 59°
2026-05-08 07:29 37.24424 -111.40366 36931 ft 486 kts 59°
2026-05-08 07:30 37.27370 -111.32858 36905 ft 486 kts 59°
2026-05-08 07:30 37.30336 -111.25282 36907 ft 486 kts 59°
2026-05-08 07:31 37.33295 -111.17703 36907 ft 485 kts 59°
2026-05-08 07:31 37.36266 -111.10076 36905 ft 487 kts 59°
2026-05-08 07:32 37.39241 -111.02422 36911 ft 487 kts 59°
2026-05-08 07:32 37.42221 -110.94739 36907 ft 488 kts 59°
2026-05-08 07:33 37.45188 -110.87063 36906 ft 488 kts 59°
2026-05-08 07:33 37.48142 -110.79407 36937 ft 488 kts 58°
2026-05-08 07:34 37.51106 -110.71704 36916 ft 489 kts 58°
2026-05-08 07:34 37.54059 -110.64009 36912 ft 489 kts 58°
2026-05-08 07:35 37.57021 -110.56273 36907 ft 489 kts 58°
2026-05-08 07:35 37.59974 -110.48544 36906 ft 489 kts 59°
2026-05-08 07:36 37.62906 -110.40845 36923 ft 489 kts 58°
2026-05-08 07:36 37.65832 -110.33149 36905 ft 488 kts 58°
2026-05-08 07:37 37.68758 -110.25427 36936 ft 487 kts 58°
2026-05-08 07:37 37.71679 -110.17702 36914 ft 486 kts 59°
2026-05-08 07:38 37.74587 -110.09992 36923 ft 486 kts 58°
2026-05-08 07:38 37.77489 -110.02280 36935 ft 486 kts 58°
2026-05-08 07:39 37.80370 -109.94605 36936 ft 486 kts 58°
2026-05-08 07:39 37.83264 -109.86878 36940 ft 486 kts 58°
2026-05-08 07:40 37.86157 -109.79127 36975 ft 486 kts 58°
2026-05-08 07:40 37.89044 -109.71380 36950 ft 486 kts 58°
2026-05-08 07:41 37.91925 -109.63623 36961 ft 488 kts 58°
2026-05-08 07:41 37.94808 -109.55843 36964 ft 489 kts 59°
2026-05-08 07:42 37.97703 -109.48014 36958 ft 489 kts 59°
2026-05-08 07:42 38.00584 -109.40197 36962 ft 490 kts 59°
2026-05-08 07:43 38.03468 -109.32355 36970 ft 490 kts 59°
2026-05-08 07:43 38.06343 -109.24512 36965 ft 490 kts 59°
2026-05-08 07:44 38.09200 -109.16703 36963 ft 490 kts 59°
2026-05-08 07:44 38.12065 -109.08850 36987 ft 490 kts 59°
2026-05-08 07:45 38.14929 -109.00981 36973 ft 490 kts 59°
2026-05-08 07:45 38.17781 -108.93121 36965 ft 490 kts 59°
2026-05-08 07:46 38.20625 -108.85264 36966 ft 489 kts 59°
2026-05-08 07:46 38.23463 -108.77404 37000 ft 488 kts 59°
2026-05-08 07:47 38.26298 -108.69534 36969 ft 488 kts 59°
2026-05-08 07:47 38.29100 -108.61730 36970 ft 488 kts 59°
2026-05-08 07:48 38.31916 -108.53866 36991 ft 487 kts 59°
2026-05-08 07:48 38.34720 -108.46018 36976 ft 486 kts 59°
2026-05-08 07:49 38.37511 -108.38186 36997 ft 486 kts 59°
2026-05-08 07:49 38.40279 -108.30403 36985 ft 486 kts 59°
2026-05-08 07:50 38.43069 -108.22532 37038 ft 486 kts 59°
2026-05-08 07:50 38.45834 -108.14710 37080 ft 486 kts 59°
2026-05-08 07:51 38.48610 -108.06835 37102 ft 486 kts 59°
2026-05-08 07:51 38.51377 -107.98967 37130 ft 487 kts 59°
2026-05-08 07:52 38.54135 -107.91103 37130 ft 487 kts 59°
2026-05-08 07:52 38.56898 -107.83203 37133 ft 487 kts 59°
2026-05-08 07:52 38.58276 -107.79252 36958 ft 487 kts 59°
2026-05-08 07:53 38.59661 -107.75301 36969 ft 486 kts 59°
2026-05-08 07:53 38.62415 -107.67375 36981 ft 488 kts 60°
2026-05-08 07:54 38.65171 -107.59422 36990 ft 490 kts 60°
2026-05-08 07:54 38.67933 -107.51437 36981 ft 491 kts 60°
2026-05-08 07:55 38.70694 -107.43439 37002 ft 492 kts 60°
2026-05-08 07:55 38.73440 -107.35454 36982 ft 493 kts 61°
2026-05-08 07:56 38.76194 -107.27430 36988 ft 494 kts 61°
2026-05-08 07:56 38.78958 -107.19353 36992 ft 494 kts 61°
2026-05-08 07:57 38.81711 -107.11291 36956 ft 492 kts 61°
2026-05-08 07:57 38.84442 -107.03257 37033 ft 492 kts 62°
2026-05-08 07:58 38.87138 -106.95296 36975 ft 472 kts 62°
2026-05-08 07:58 38.88418 -106.91498 37009 ft 455 kts 62°
2026-05-08 07:58 38.89651 -106.87845 36752 ft 450 kts 61°
2026-05-08 07:58 38.90885 -106.84203 36368 ft 446 kts 61°
2026-05-08 07:59 38.92107 -106.80592 35989 ft 442 kts 60°
2026-05-08 07:59 38.93318 -106.77001 35571 ft 437 kts 60°
2026-05-08 07:59 38.94512 -106.73457 35173 ft 431 kts 60°
2026-05-08 07:59 38.95692 -106.69941 34802 ft 427 kts 59°
2026-05-08 08:00 38.96865 -106.66455 34387 ft 424 kts 59°
2026-05-08 08:00 38.98016 -106.63028 33980 ft 420 kts 58°
2026-05-08 08:00 38.99154 -106.59630 33521 ft 415 kts 59°
2026-05-08 08:00 39.00295 -106.56266 33168 ft 410 kts 58°
2026-05-08 08:01 39.01482 -106.52973 32771 ft 405 kts 57°
2026-05-08 08:01 39.02681 -106.49733 32409 ft 399 kts 56°
2026-05-08 08:01 39.03874 -106.46525 32066 ft 396 kts 56°
2026-05-08 08:01 39.05052 -106.43346 31673 ft 393 kts 57°
2026-05-08 08:02 39.06215 -106.40187 31335 ft 390 kts 57°
2026-05-08 08:02 39.07369 -106.37033 30973 ft 387 kts 57°
2026-05-08 08:02 39.08509 -106.33907 30630 ft 384 kts 56°
2026-05-08 08:02 39.09638 -106.30803 30265 ft 381 kts 56°
2026-05-08 08:03 39.10757 -106.27721 29842 ft 379 kts 56°
2026-05-08 08:03 39.11870 -106.24657 29433 ft 377 kts 56°
2026-05-08 08:03 39.12979 -106.21601 28957 ft 376 kts 56°
2026-05-08 08:03 39.14081 -106.18570 28340 ft 379 kts 56°
2026-05-08 08:04 39.15199 -106.15486 27680 ft 383 kts 56°
2026-05-08 08:04 39.16332 -106.12353 27066 ft 385 kts 57°
2026-05-08 08:04 39.17456 -106.09226 26552 ft 386 kts 57°
2026-05-08 08:04 39.18582 -106.06086 26081 ft 385 kts 57°
2026-05-08 08:05 39.19698 -106.02967 25650 ft 383 kts 57°
2026-05-08 08:05 39.20808 -105.99867 25224 ft 380 kts 57°
2026-05-08 08:05 39.21916 -105.96778 24840 ft 378 kts 57°
2026-05-08 08:05 39.23004 -105.93739 24365 ft 377 kts 58°
2026-05-08 08:06 39.24103 -105.90669 23991 ft 375 kts 57°
2026-05-08 08:06 39.25203 -105.87614 23602 ft 374 kts 57°
2026-05-08 08:06 39.26313 -105.84537 23158 ft 373 kts 58°
2026-05-08 08:06 39.27390 -105.81550 22750 ft 370 kts 58°
2026-05-08 08:07 39.28470 -105.78547 22368 ft 368 kts 58°
2026-05-08 08:07 39.29540 -105.75571 21986 ft 365 kts 58°
2026-05-08 08:07 39.30606 -105.72603 21618 ft 362 kts 58°
2026-05-08 08:07 39.31661 -105.69660 21272 ft 360 kts 58°
2026-05-08 08:08 39.32711 -105.66734 20911 ft 358 kts 58°
2026-05-08 08:08 39.33766 -105.63833 20531 ft 356 kts 59°
2026-05-08 08:08 39.34822 -105.60949 20167 ft 355 kts 59°
2026-05-08 08:08 39.35877 -105.58068 19780 ft 354 kts 59°
2026-05-08 08:09 39.36925 -105.55201 19416 ft 352 kts 59°
2026-05-08 08:09 39.37967 -105.52341 19051 ft 352 kts 59°
2026-05-08 08:09 39.39013 -105.49471 18659 ft 351 kts 59°
2026-05-08 08:09 39.40050 -105.46615 18260 ft 351 kts 59°
2026-05-08 08:10 39.41070 -105.43800 17901 ft 347 kts 60°
2026-05-08 08:10 39.41783 -105.40854 17625 ft 346 kts 81°
2026-05-08 08:10 39.41809 -105.37787 17264 ft 342 kts 87°
2026-05-08 08:10 39.41781 -105.34726 16901 ft 339 kts 86°
2026-05-08 08:11 39.41772 -105.31683 16473 ft 340 kts 86°
2026-05-08 08:11 39.41772 -105.28635 16101 ft 339 kts 86°
2026-05-08 08:11 39.41780 -105.25588 15714 ft 337 kts 86°
2026-05-08 08:11 39.41790 -105.22581 15372 ft 333 kts 86°
2026-05-08 08:12 39.41797 -105.20591 15133 ft 333 kts 86°
2026-05-08 08:12 39.41815 -105.16614 14651 ft 331 kts 86°
2026-05-08 08:12 39.41823 -105.14633 14428 ft 331 kts 85°
2026-05-08 08:12 39.41836 -105.11651 14052 ft 331 kts 86°
2026-05-08 08:13 39.41848 -105.08670 13748 ft 328 kts 85°
2026-05-08 08:13 39.41857 -105.05812 13595 ft 320 kts 85°
2026-05-08 08:13 39.41867 -105.02966 13433 ft 312 kts 85°
2026-05-08 08:13 39.41876 -105.00204 13297 ft 302 kts 86°
2026-05-08 08:14 39.41886 -104.96679 13184 ft 292 kts 86°
2026-05-08 08:14 39.41891 -104.94903 12965 ft 291 kts 85°
2026-05-08 08:14 39.42000 -104.92310 12691 ft 286 kts 79°
2026-05-08 08:14 39.42241 -104.89813 12422 ft 283 kts 79°
2026-05-08 08:15 39.42489 -104.87298 12152 ft 280 kts 79°
2026-05-08 08:15 39.42726 -104.84826 11884 ft 277 kts 79°
2026-05-08 08:15 39.42953 -104.82362 11604 ft 274 kts 80°
2026-05-08 08:15 39.43171 -104.79929 11314 ft 270 kts 79°
2026-05-08 08:16 39.43702 -104.77686 11026 ft 255 kts 51°
2026-05-08 08:16 39.44940 -104.76163 10892 ft 243 kts 25°
2026-05-08 08:16 39.46499 -104.75289 10756 ft 246 kts 11°
2026-05-08 08:16 39.48053 -104.74802 10627 ft 246 kts
2026-05-08 08:17 39.49731 -104.74344 10478 ft 245 kts
2026-05-08 08:17 39.51400 -104.73895 10316 ft 245 kts
2026-05-08 08:17 39.53041 -104.73447 10168 ft 244 kts